Alexandria Esle, LA

7:53 AM CDT on April 19, 2018 (GMT -0500)
Alexandria Esler Regional

Weather History for KESF - January, 2014

Change the Weather History Date:

Thursday, January 16, 2014

  Actual Average Record
Temperature  
Mean Temperature 48 °F -  
Max Temperature 68 °F 58 °F 87 °F (2012)
Min Temperature 28 °F 37 °F 17 °F (1963)
Degree Days  
Heating Degree Days 17    
Moisture  
Dew Point 30 °F    
Average Humidity 59    
Maximum Humidity 89    
Minimum Humidity 25    
Precipitation  
Precipitation 0.00 in - - ()
Sea Level Pressure  
Sea Level Pressure 30.11 in    
Wind  
Wind Speed 4 mph (WSW)    
Max Wind Speed 20 mph    
Max Gust Speed 28 mph    
Visibility 10 miles    
Events      
Averages and records for this station are not official NWS values.
T = Trace of Precipitation, MM = Missing Value Source: NWS Daily Summary

Daily Weather History Graph

Daily Weather History Graph

Search for Another Location

Airport or City:

Astronomy

Jan. 16, 2014 Rise Set
Actual Time 7:08 AM CST 5:29 PM CST
Civil Twilight 6:42 AM CST 5:55 PM CST
Nautical Twilight 6:12 AM CST 6:25 PM CST
Astronomical Twilight 5:43 AM CST 6:54 PM CST
Moon 6:15 PM CST (1/16) 7:07 AM CST (1/16)
Length of Visible Light 11h 13m
Length of Day
10h 21m
Full, 100% of the Moon is Illuminated
Jan 16
Full
Jan 23
Last Quarter
Jan 30
New
Feb 6
First Quarter
Feb 14
Full

Hourly Weather History & Observations

Time (CST) Temp. Windchill Dew Point Humidity Pressure Visibility Wind Dir Wind Speed Gust Speed Precip Events Conditions
12:53 AM 28.9 °F - 25.0 °F 85% 30.17 in 10.0 mi Calm Calm - N/A   Clear
1:53 AM 28.0 °F 24.2 °F 25.0 °F 88% 30.17 in 10.0 mi West 3.5 mph - N/A   Clear
2:53 AM 30.0 °F - 25.0 °F 82% 30.19 in 10.0 mi Calm Calm - N/A   Clear
3:53 AM 28.9 °F - 26.1 °F 89% 30.16 in 10.0 mi Calm Calm - N/A   Clear
4:53 AM 28.9 °F - 25.0 °F 85% 30.15 in 10.0 mi Calm Calm - N/A   Clear
5:53 AM 28.9 °F - 25.0 °F 85% 30.14 in 10.0 mi Calm Calm - N/A   Clear
6:53 AM 28.9 °F - 25.0 °F 85% 30.14 in 10.0 mi Calm Calm - N/A   Clear
7:53 AM 30.9 °F - 27.0 °F 85% 30.15 in 10.0 mi Calm Calm - N/A   Clear
8:53 AM 43.0 °F 40.3 °F 28.9 °F 58% 30.16 in 10.0 mi SSW 4.6 mph - N/A   Clear
9:53 AM 51.1 °F - 25.0 °F 36% 30.17 in 10.0 mi SSW 9.2 mph 17.3 mph N/A   Clear
10:53 AM 55.9 °F - 28.0 °F 34% 30.15 in 10.0 mi SSW 10.4 mph - N/A   Clear
11:53 AM 61.0 °F - 28.9 °F 30% 30.11 in 10.0 mi SW 16.1 mph 19.6 mph N/A   Clear
12:53 PM 64.9 °F - 28.9 °F 26% 30.05 in 10.0 mi WSW 19.6 mph 23.0 mph N/A   Clear
1:53 PM 66.9 °F - 30.0 °F 25% 30.03 in 10.0 mi West 16.1 mph 27.6 mph N/A   Clear
2:53 PM 68.0 °F - 30.9 °F 25% 30.01 in 10.0 mi West 19.6 mph 26.5 mph N/A   Clear
3:53 PM 66.9 °F - 32.0 °F 27% 30.02 in 10.0 mi WSW 16.1 mph 24.2 mph N/A   Clear
4:53 PM 64.9 °F - 34.0 °F 32% 30.04 in 10.0 mi West 10.4 mph - N/A   Clear
5:53 PM 60.1 °F - 34.0 °F 38% 30.05 in 10.0 mi West 5.8 mph - N/A   Clear
6:53 PM 51.1 °F - 36.0 °F 56% 30.06 in 10.0 mi Calm Calm - N/A   Clear
7:53 PM 46.0 °F - 36.0 °F 68% 30.08 in 10.0 mi Calm Calm - N/A   Clear
8:53 PM 46.9 °F - 36.0 °F 66% 30.08 in 10.0 mi West 5.8 mph - N/A   Clear
9:53 PM 50.0 °F - 36.0 °F 59% 30.09 in 10.0 mi West 4.6 mph - N/A   Clear
10:53 PM 44.1 °F 40.8 °F 35.1 °F 71% 30.09 in 10.0 mi West 5.8 mph - N/A   Clear
11:53 PM 43.0 °F 41.3 °F 35.1 °F 74% 30.09 in 10.0 mi West 3.5 mph - N/A   Clear